Tracking 28790 objects as of 19-Apr-2024
HD Live streaming from Space Station
objects crossing your sky now

NOAA 16 DEB

Track NOAA 16 DEB now!
10-day predictions


NORAD ID: 41069
Int'l Code: 2000-055AC
Perigee: 691.8 km
Apogee: 861.2 km
Inclination: 98.6 °
Period: 100.2 minutes
Semi major axis: 7147 km
RCS: Unknown
Launch date: September 21, 2000
Source: United States (US)
Launch site: AIR FORCE WESTERN TEST RANGE (AFWTR)

Note: This is SATELLITE DEBRIS
Your satellite tracking list
Your tracking list is empty




NASA's NSSDC Master Catalog

Two Line Element Set (TLE):
1 41069U 00055AC  24110.22250025  .00004776  00000-0  15084-2 0  9990
2 41069  98.5741 209.2714 0118505  18.1489 342.3873 14.36730923439040
Source of the keplerian elements: AFSPC